Time,TemperatureF,DewpointF,PressureIn,WindDirection,WindDirectionDegrees,WindSpeedMPH,WindSpeedGustMPH,Humidity,HourlyPrecipIn,Conditions,Clouds,dailyrainin,SoftwareType,DateUTC
2013-06-09 00:02:00,62.0,61.0,29.66,South,173,7.0,13.0,95,0.00,,,1.27,,2013-06-09 05:02:00,
2013-06-09 00:12:00,62.0,61.0,29.66,South,173,7.0,13.0,95,0.00,,,1.27,,2013-06-09 05:12:00,
2013-06-09 00:22:00,62.0,61.0,29.66,South,190,5.0,13.0,95,0.00,,,1.27,,2013-06-09 05:22:00,
2013-06-09 00:32:00,62.0,60.0,29.66,SSW,202,5.0,12.0,94,0.00,,,1.27,,2013-06-09 05:32:00,
2013-06-09 00:42:00,62.0,60.0,29.66,SSW,202,5.0,12.0,94,0.00,,,1.27,,2013-06-09 05:42:00,
2013-06-09 00:52:00,62.0,60.0,29.66,South,185,7.0,17.0,93,0.00,,,1.27,,2013-06-09 05:52:00,
2013-06-09 01:02:00,62.0,60.0,29.66,SW,217,7.0,15.0,92,0.00,,,1.27,,2013-06-09 06:02:00,
2013-06-09 01:12:00,62.0,60.0,29.66,SW,217,7.0,15.0,92,0.00,,,1.27,,2013-06-09 06:12:00,
2013-06-09 01:22:00,63.0,60.0,29.66,SSW,193,5.0,15.0,91,0.00,,,1.27,,2013-06-09 06:22:00,
2013-06-09 01:32:00,63.0,60.0,29.66,SSW,203,7.0,13.0,90,0.00,,,1.27,,2013-06-09 06:32:00,
2013-06-09 01:42:00,63.0,60.0,29.66,SSW,203,7.0,13.0,90,0.00,,,1.27,,2013-06-09 06:42:00,
2013-06-09 01:52:00,63.0,60.0,29.66,SW,225,10.0,16.0,89,0.00,,,1.27,,2013-06-09 06:52:00,
2013-06-09 02:02:00,63.0,59.0,29.66,SSW,195,7.0,15.0,88,0.00,,,1.27,,2013-06-09 07:02:00,
2013-06-09 02:12:00,63.0,59.0,29.66,SSW,195,7.0,15.0,88,0.00,,,1.27,,2013-06-09 07:12:00,
2013-06-09 02:22:00,62.0,59.0,29.65,SSW,213,6.0,17.0,89,0.00,,,1.27,,2013-06-09 07:22:00,
2013-06-09 02:32:00,62.0,59.0,29.65,SSW,194,6.0,14.0,90,0.00,,,1.27,,2013-06-09 07:32:00,
2013-06-09 02:42:00,62.0,59.0,29.65,SSW,194,6.0,14.0,90,0.00,,,1.27,,2013-06-09 07:42:00,
2013-06-09 02:52:00,62.0,59.0,29.65,SW,217,7.0,16.0,90,0.00,,,1.27,,2013-06-09 07:52:00,
2013-06-09 03:02:00,62.0,59.0,29.65,SSW,203,4.0,11.0,89,0.00,,,1.27,,2013-06-09 08:02:00,
2013-06-09 03:12:00,62.0,59.0,29.65,SSW,203,4.0,11.0,89,0.00,,,1.27,,2013-06-09 08:12:00,
2013-06-09 03:22:00,62.0,59.0,29.65,SW,228,5.0,13.0,91,0.00,,,1.27,,2013-06-09 08:22:00,
2013-06-09 03:32:00,61.0,58.0,29.64,WSW,240,6.0,11.0,91,0.00,,,1.27,,2013-06-09 08:32:00,
2013-06-09 03:42:00,61.0,58.0,29.64,WSW,240,6.0,11.0,91,0.00,,,1.27,,2013-06-09 08:42:00,
2013-06-09 03:53:00,61.0,58.0,29.64,SW,216,4.0,9.0,90,0.00,,,1.27,,2013-06-09 08:53:00,
2013-06-09 04:02:00,61.0,57.0,29.64,SW,233,4.0,9.0,88,0.00,,,1.27,,2013-06-09 09:02:00,
2013-06-09 04:12:00,61.0,57.0,29.64,SW,233,4.0,9.0,88,0.00,,,1.27,,2013-06-09 09:12:00,
2013-06-09 04:22:00,61.0,57.0,29.64,SW,221,4.0,12.0,88,0.00,,,1.27,,2013-06-09 09:22:00,
2013-06-09 04:33:00,60.0,56.0,29.64,SW,223,6.0,12.0,87,0.00,,,1.27,,2013-06-09 09:33:00,
2013-06-09 04:43:00,60.0,56.0,29.64,SW,223,6.0,12.0,87,0.00,,,1.27,,2013-06-09 09:43:00,
2013-06-09 04:52:00,60.0,56.0,29.64,West,260,6.0,13.0,87,0.00,,,1.27,,2013-06-09 09:52:00,
2013-06-09 05:03:00,60.0,56.0,29.64,WSW,247,5.0,11.0,87,0.00,,,1.27,,2013-06-09 10:03:00,
2013-06-09 05:12:00,60.0,56.0,29.64,WSW,247,5.0,11.0,87,0.00,,,1.27,,2013-06-09 10:12:00,
2013-06-09 05:23:00,60.0,56.0,29.64,SSW,213,5.0,13.0,88,0.00,,,1.27,,2013-06-09 10:23:00,
2013-06-09 05:32:00,60.0,56.0,29.65,SW,235,6.0,12.0,88,0.00,,,1.27,,2013-06-09 10:32:00,
2013-06-09 05:43:00,60.0,56.0,29.65,SW,235,6.0,12.0,88,0.00,,,1.27,,2013-06-09 10:43:00,
2013-06-09 05:52:00,60.0,56.0,29.65,SW,236,6.0,15.0,88,0.00,,,1.27,,2013-06-09 10:52:00,
2013-06-09 06:02:00,60.0,56.0,29.65,SW,221,5.0,12.0,88,0.00,,,1.27,,2013-06-09 11:02:00,
2013-06-09 06:12:00,60.0,56.0,29.65,SW,221,5.0,12.0,88,0.00,,,1.27,,2013-06-09 11:12:00,
2013-06-09 06:22:00,60.0,56.0,29.66,SW,215,5.0,12.0,88,0.00,,,1.27,,2013-06-09 11:22:00,
2013-06-09 06:32:00,60.0,56.0,29.66,SW,215,5.0,13.0,88,0.00,,,1.27,,2013-06-09 11:32:00,
2013-06-09 06:42:00,60.0,56.0,29.66,SW,215,5.0,13.0,88,0.00,,,1.27,,2013-06-09 11:42:00,
2013-06-09 06:52:00,60.0,56.0,29.66,SW,214,5.0,12.0,88,0.00,,,1.27,,2013-06-09 11:52:00,
2013-06-09 07:02:00,60.0,56.0,29.66,WSW,258,6.0,11.0,88,0.00,,,1.27,,2013-06-09 12:02:00,
2013-06-09 07:12:00,60.0,56.0,29.66,WSW,258,6.0,11.0,88,0.00,,,1.27,,2013-06-09 12:12:00,
2013-06-09 07:22:00,60.0,56.0,29.66,WSW,239,7.0,13.0,88,0.00,,,1.27,,2013-06-09 12:22:00,
2013-06-09 07:32:00,60.0,57.0,29.66,SW,219,6.0,16.0,89,0.00,,,1.27,,2013-06-09 12:32:00,
2013-06-09 07:42:00,60.0,57.0,29.66,SW,219,6.0,16.0,89,0.00,,,1.27,,2013-06-09 12:42:00,
2013-06-09 07:52:00,59.0,56.0,29.66,WSW,253,5.0,14.0,91,0.00,,,1.27,,2013-06-09 12:52:00,
2013-06-09 08:02:00,60.0,57.0,29.66,WSW,244,7.0,13.0,91,0.00,,,1.27,,2013-06-09 13:02:00,
2013-06-09 08:12:00,60.0,57.0,29.66,WSW,244,7.0,13.0,91,0.00,,,1.27,,2013-06-09 13:12:00,
2013-06-09 08:22:00,60.0,57.0,29.66,West,267,5.0,14.0,89,0.00,,,1.27,,2013-06-09 13:22:00,
2013-06-09 08:32:00,61.0,57.0,29.66,WSW,258,6.0,13.0,88,0.00,,,1.27,,2013-06-09 13:32:00,
2013-06-09 08:42:00,61.0,57.0,29.66,WSW,258,6.0,13.0,88,0.00,,,1.27,,2013-06-09 13:42:00,
2013-06-09 08:52:00,61.0,57.0,29.66,West,267,9.0,16.0,88,0.00,,,1.27,,2013-06-09 13:52:00,
2013-06-09 09:02:00,61.0,58.0,29.67,West,273,8.0,18.0,89,0.00,,,1.27,,2013-06-09 14:02:00,
2013-06-09 09:12:00,61.0,58.0,29.67,West,273,8.0,18.0,89,0.00,,,1.27,,2013-06-09 14:12:00,
2013-06-09 09:22:00,60.0,57.0,29.67,WSW,246,7.0,13.0,90,0.00,,,1.27,,2013-06-09 14:22:00,
2013-06-09 09:32:00,60.0,57.0,29.67,West,265,9.0,16.0,91,0.01,,,1.28,,2013-06-09 14:32:00,
2013-06-09 09:42:00,60.0,57.0,29.67,West,265,9.0,16.0,91,0.01,,,1.28,,2013-06-09 14:42:00,
2013-06-09 09:52:00,60.0,58.0,29.67,WSW,248,5.0,12.0,93,0.01,,,1.28,,2013-06-09 14:52:00,
2013-06-09 10:02:00,60.0,58.0,29.68,West,266,8.0,14.0,93,0.01,,,1.28,,2013-06-09 15:02:00,
2013-06-09 10:12:00,60.0,58.0,29.68,West,266,8.0,14.0,93,0.01,,,1.28,,2013-06-09 15:12:00,
2013-06-09 10:22:00,60.0,58.0,29.68,West,266,9.0,15.0,94,0.02,,,1.29,,2013-06-09 15:22:00,
2013-06-09 10:33:00,60.0,58.0,29.68,SW,233,10.0,18.0,94,0.02,,,1.30,,2013-06-09 15:33:00,
2013-06-09 10:43:00,60.0,58.0,29.68,SW,233,10.0,18.0,94,0.02,,,1.30,,2013-06-09 15:43:00,
2013-06-09 10:53:00,59.0,57.0,29.69,West,273,13.0,23.0,93,0.04,,,1.32,,2013-06-09 15:53:00,
2013-06-09 11:03:00,59.0,57.0,29.68,WNW,286,13.0,22.0,94,0.06,,,1.34,,2013-06-09 16:03:00,
2013-06-09 11:13:00,59.0,57.0,29.68,WNW,286,13.0,22.0,94,0.06,,,1.34,,2013-06-09 16:13:00,
2013-06-09 11:23:00,60.0,58.0,29.69,West,266,7.0,14.0,94,0.06,,,1.35,,2013-06-09 16:23:00,
2013-06-09 11:33:00,60.0,59.0,29.69,WSW,249,8.0,13.0,95,0.06,,,1.27,,2013-06-09 16:33:00,
2013-06-09 11:42:00,60.0,59.0,29.69,WSW,249,8.0,13.0,95,0.06,,,1.27,,2013-06-09 16:42:00,
2013-06-09 11:53:00,60.0,58.0,29.69,WSW,253,9.0,19.0,94,0.07,,,1.30,,2013-06-09 16:53:00,
2013-06-09 12:02:00,60.0,58.0,29.70,West,271,11.0,15.0,94,0.05,,,1.30,,2013-06-09 17:02:00,
2013-06-09 12:12:00,60.0,58.0,29.70,West,271,11.0,15.0,94,0.05,,,1.30,,2013-06-09 17:12:00,
2013-06-09 12:22:00,60.0,58.0,29.70,WSW,244,10.0,20.0,94,0.05,,,1.31,,2013-06-09 17:22:00,
2013-06-09 12:32:00,60.0,59.0,29.70,SW,235,12.0,17.0,95,0.06,,,1.31,,2013-06-09 17:32:00,
2013-06-09 12:42:00,60.0,59.0,29.70,SW,235,12.0,17.0,95,0.06,,,1.31,,2013-06-09 17:42:00,
2013-06-09 12:52:00,60.0,59.0,29.70,West,272,9.0,18.0,95,0.06,,,1.34,,2013-06-09 17:52:00,
2013-06-09 13:02:00,60.0,59.0,29.70,West,277,8.0,22.0,96,0.09,,,1.37,,2013-06-09 18:02:00,
2013-06-09 13:12:00,60.0,59.0,29.70,West,277,8.0,22.0,96,0.09,,,1.37,,2013-06-09 18:12:00,
2013-06-09 13:21:00,59.0,58.0,29.71,West,265,6.0,13.0,96,0.12,,,1.41,,2013-06-09 18:21:00,
2013-06-09 13:32:00,59.0,58.0,29.71,WSW,257,8.0,15.0,96,0.15,,,1.38,,2013-06-09 18:32:00,
2013-06-09 13:42:00,59.0,58.0,29.71,WSW,257,8.0,15.0,96,0.15,,,1.38,,2013-06-09 18:42:00,
2013-06-09 13:52:00,59.0,58.0,29.71,WSW,248,8.0,14.0,96,0.16,,,1.42,,2013-06-09 18:52:00,
2013-06-09 14:02:00,60.0,59.0,29.71,WNW,294,7.0,14.0,96,0.16,,,1.45,,2013-06-09 19:02:00,
2013-06-09 14:12:00,60.0,59.0,29.71,WNW,294,7.0,14.0,96,0.16,,,1.45,,2013-06-09 19:12:00,
2013-06-09 14:22:00,60.0,59.0,29.71,West,265,8.0,15.0,95,0.14,,,1.47,,2013-06-09 19:22:00,
2013-06-09 14:32:00,61.0,59.0,29.71,WNW,300,8.0,17.0,94,0.10,,,1.43,,2013-06-09 19:32:00,
2013-06-09 14:42:00,61.0,59.0,29.71,WNW,300,8.0,17.0,94,0.10,,,1.43,,2013-06-09 19:42:00,
2013-06-09 14:52:00,61.0,59.0,29.71,West,274,6.0,19.0,93,0.07,,,1.44,,2013-06-09 19:52:00,
2013-06-09 15:02:00,61.0,59.0,29.71,West,277,7.0,18.0,93,0.04,,,1.44,,2013-06-09 20:02:00,
2013-06-09 15:12:00,61.0,59.0,29.71,West,277,7.0,18.0,93,0.04,,,1.44,,2013-06-09 20:12:00,
2013-06-09 15:22:00,61.0,59.0,29.71,West,264,6.0,19.0,93,0.03,,,1.45,,2013-06-09 20:22:00,
2013-06-09 15:32:00,61.0,59.0,29.72,West,261,6.0,14.0,94,0.02,,,1.43,,2013-06-09 20:32:00,
2013-06-09 15:42:00,61.0,59.0,29.72,West,261,6.0,14.0,94,0.02,,,1.43,,2013-06-09 20:42:00,
2013-06-09 15:52:00,61.0,59.0,29.71,West,264,6.0,13.0,94,0.02,,,1.44,,2013-06-09 20:52:00,
2013-06-09 16:02:00,62.0,60.0,29.71,West,279,8.0,17.0,92,0.02,,,1.44,,2013-06-09 21:02:00,
2013-06-09 16:12:00,64.0,61.0,29.71,WNW,290,6.0,15.0,90,0.01,,,1.44,,2013-06-09 21:12:00,
2013-06-09 16:22:00,64.0,61.0,29.71,WNW,290,6.0,15.0,90,0.01,,,1.44,,2013-06-09 21:22:00,
2013-06-09 16:33:00,64.0,59.0,29.71,WNW,296,9.0,19.0,85,0.00,,,1.44,,2013-06-09 21:33:00,
2013-06-09 16:43:00,64.0,59.0,29.71,WNW,296,9.0,19.0,85,0.00,,,1.44,,2013-06-09 21:43:00,
2013-06-09 16:53:00,64.0,59.0,29.70,West,264,9.0,21.0,84,0.00,,,1.44,,2013-06-09 21:53:00,
2013-06-09 17:02:00,65.0,59.0,29.71,West,279,12.0,22.0,81,0.00,,,1.44,,2013-06-09 22:02:00,
2013-06-09 17:13:00,66.0,60.0,29.71,WNW,292,13.0,22.0,80,0.00,,,1.44,,2013-06-09 22:13:00,
2013-06-09 17:23:00,66.0,60.0,29.71,WNW,292,13.0,22.0,80,0.00,,,1.44,,2013-06-09 22:23:00,
2013-06-09 17:33:00,66.0,60.0,29.71,WNW,292,6.0,25.0,81,0.00,,,1.44,,2013-06-09 22:33:00,
2013-06-09 17:42:00,66.0,60.0,29.71,WNW,292,6.0,25.0,81,0.00,,,1.44,,2013-06-09 22:42:00,
2013-06-09 17:52:00,66.0,59.0,29.71,WNW,290,10.0,21.0,79,0.00,,,1.44,,2013-06-09 22:52:00,
2013-06-09 18:02:00,66.0,59.0,29.71,WNW,290,10.0,21.0,78,0.00,,,1.44,,2013-06-09 23:02:00,
2013-06-09 18:12:00,65.0,58.0,29.72,West,275,8.0,24.0,79,0.00,,,1.44,,2013-06-09 23:12:00,
2013-06-09 18:22:00,65.0,58.0,29.72,West,275,8.0,24.0,79,0.00,,,1.44,,2013-06-09 23:22:00,
2013-06-09 18:32:00,65.0,58.0,29.72,West,278,9.0,17.0,79,0.00,,,1.37,,2013-06-09 23:32:00,
2013-06-09 18:42:00,65.0,58.0,29.72,West,278,9.0,17.0,79,0.00,,,1.37,,2013-06-09 23:42:00,
2013-06-09 18:52:00,66.0,59.0,29.72,WNW,296,9.0,17.0,79,0.00,,,1.37,,2013-06-09 23:52:00,
2013-06-09 19:02:00,65.0,58.0,29.72,WSW,238,6.0,22.0,79,0.00,,,1.37,,2013-06-10 00:02:00,
2013-06-09 19:12:00,65.0,58.0,29.72,WSW,238,6.0,22.0,79,0.00,,,1.37,,2013-06-10 00:12:00,
2013-06-09 19:22:00,65.0,59.0,29.72,WNW,290,7.0,23.0,80,0.00,,,1.37,,2013-06-10 00:22:00,
2013-06-09 19:32:00,65.0,59.0,29.73,WNW,285,7.0,19.0,80,0.00,,,0.96,,2013-06-10 00:32:00,
2013-06-09 19:42:00,65.0,59.0,29.73,WNW,285,7.0,19.0,80,0.00,,,0.96,,2013-06-10 00:42:00,
2013-06-09 19:52:00,65.0,58.0,29.73,West,279,6.0,19.0,79,0.00,,,0.96,,2013-06-10 00:52:00,
2013-06-09 20:02:00,64.0,58.0,29.73,WSW,257,7.0,19.0,80,0.00,,,0.96,,2013-06-10 01:02:00,
2013-06-09 20:12:00,64.0,58.0,29.73,WSW,257,7.0,19.0,80,0.00,,,0.96,,2013-06-10 01:12:00,
2013-06-09 20:22:00,64.0,58.0,29.74,WNW,299,10.0,25.0,81,0.00,,,0.96,,2013-06-10 01:22:00,
2013-06-09 20:32:00,64.0,58.0,29.74,WNW,294,9.0,18.0,81,0.00,,,0.43,,2013-06-10 01:32:00,
2013-06-09 20:42:00,64.0,58.0,29.74,WNW,294,9.0,18.0,81,0.00,,,0.43,,2013-06-10 01:42:00,
2013-06-09 20:52:00,64.0,58.0,29.74,West,264,9.0,17.0,81,0.00,,,0.43,,2013-06-10 01:52:00,
2013-06-09 21:02:00,64.0,58.0,29.75,West,271,6.0,18.0,81,0.00,,,0.43,,2013-06-10 02:02:00,
2013-06-09 21:12:00,64.0,58.0,29.75,West,271,6.0,18.0,81,0.00,,,0.43,,2013-06-10 02:12:00,
2013-06-09 21:22:00,64.0,58.0,29.75,WNW,292,6.0,14.0,82,0.00,,,0.43,,2013-06-10 02:22:00,
2013-06-09 21:32:00,64.0,58.0,29.75,WNW,282,6.0,14.0,82,0.00,,,0.43,,2013-06-10 02:32:00,
2013-06-09 21:42:00,64.0,58.0,29.75,WNW,282,6.0,14.0,82,0.00,,,0.43,,2013-06-10 02:42:00,
2013-06-09 21:52:00,63.0,58.0,29.75,NW,304,6.0,11.0,83,0.00,,,0.43,,2013-06-10 02:52:00,
2013-06-09 22:02:00,63.0,58.0,29.76,WNW,287,6.0,13.0,84,0.00,,,0.43,,2013-06-10 03:02:00,
2013-06-09 22:12:00,63.0,58.0,29.76,WNW,287,6.0,13.0,84,0.00,,,0.43,,2013-06-10 03:12:00,
2013-06-09 22:22:00,62.0,57.0,29.76,WNW,293,5.0,12.0,85,0.00,,,0.43,,2013-06-10 03:22:00,
2013-06-09 22:33:00,62.0,57.0,29.77,NW,307,5.0,15.0,85,0.00,,,0.43,,2013-06-10 03:33:00,
2013-06-09 22:43:00,62.0,57.0,29.77,NW,307,5.0,15.0,85,0.00,,,0.43,,2013-06-10 03:43:00,
2013-06-09 22:53:00,62.0,57.0,29.77,NW,304,6.0,11.0,85,0.00,,,0.43,,2013-06-10 03:53:00,
2013-06-09 23:03:00,62.0,58.0,29.77,WNW,284,7.0,14.0,86,0.00,,,0.43,,2013-06-10 04:03:00,
2013-06-09 23:12:00,62.0,58.0,29.77,WNW,284,7.0,14.0,86,0.00,,,0.43,,2013-06-10 04:12:00,
2013-06-09 23:23:00,61.0,57.0,29.77,WNW,289,6.0,14.0,86,0.00,,,0.43,,2013-06-10 04:23:00,
2013-06-09 23:33:00,61.0,57.0,29.77,NW,305,8.0,14.0,86,0.00,,,0.43,,2013-06-10 04:33:00,
2013-06-09 23:42:00,61.0,57.0,29.77,NW,305,8.0,14.0,86,0.00,,,0.43,,2013-06-10 04:42:00,
2013-06-09 23:52:00,61.0,57.0,29.77,West,279,7.0,14.0,87,0.00,,,0.43,,2013-06-10 04:52:00,